EW4496 Weather Reports


time (UTC)temp
C
wind
direction
speed
KPH
gust
KPH
rain 1hr
cm
rain 24hr
cm
rain mn
cm
humidity
%
barometer
mb
20240614131610 12 194 0.0 0.0 0.00 0.00 0.00 79 1014.1
20240614130105 12 89 0.0 3.2 0.00 0.00 0.00 77 1014.0
20240614124553 12 91 0.0 6.4 0.00 0.00 0.00 76 1013.9
20240614123126 12 68 0.0 3.2 0.00 0.00 0.00 78 1013.6
20240614121609 12 68 0.0 3.2 0.00 0.00 0.00 78 1013.6
20240614120110 12 77 1.6 4.8 0.00 0.00 0.00 77 1013.3
20240614114614 12 79 1.6 4.8 0.00 0.00 0.00 77 1013.2
20240614113108 12 84 0.0 3.2 0.00 0.00 0.00 77 1013.1
20240614111606 12 69 0.0 3.2 0.00 0.00 0.00 77 1013.1
20240614110106 12 89 0.0 4.8 0.00 0.00 0.00 77 1013.1
20240614104608 12 98 0.0 1.6 0.00 0.00 0.00 79 1013.1
20240614103113 12 205 0.0 1.6 0.00 0.00 0.00 78 1013.0
20240614101606 12 238 0.0 1.6 0.00 0.00 0.00 78 1013.1
20240614100136 12 299 0.0 3.2 0.00 0.00 0.00 79 1013.0
20240614094621 12 70 0.0 1.6 0.00 0.00 0.00 78 1013.2
20240614093107 12 68 0.0 0.0 0.00 0.00 0.00 78 1013.1
20240614091609 12 68 0.0 0.0 0.00 0.00 0.00 77 1013.2
20240614090107 13 68 0.0 8.0 0.00 0.00 0.00 76 1013.0
20240614084505 13 83 1.6 4.8 0.00 0.00 0.00 76 1013.1
20240614083025 13 67 0.0 3.2 0.00 0.00 0.00 76 1013.3
20240614081528 13 100 0.0 1.6 0.00 0.00 0.00 75 1013.4
20240614080026 13 107 0.0 4.8 0.00 0.00 0.00 74 1013.5
20240614074525 13 77 0.0 3.2 0.00 0.00 0.00 74 1013.6
20240614073026 13 72 0.0 1.6 0.00 0.00 0.00 74 1013.5
20240614071526 14 105 0.0 6.4 0.00 0.00 0.00 73 1013.6
20240614070033 14 82 0.0 3.2 0.00 0.00 0.00 73 1013.7
20240614064540 14 67 1.6 4.8 0.00 0.00 0.00 72 1013.6
20240614063046 15 101 0.0 3.2 0.00 0.00 0.00 71 1013.6
20240614061540 15 122 0.0 1.6 0.00 0.00 0.00 70 1013.6
20240614060040 15 107 0.0 1.6 0.00 0.00 0.00 70 1013.5
20240614054547 16 110 0.0 1.6 0.00 0.00 0.00 68 1013.5
20240614053040 16 63 1.6 6.4 0.00 0.00 0.00 67 1013.1
20240614051542 16 282 0.0 0.0 0.00 0.00 0.00 66 1013.3
20240614050040 17 282 0.0 1.6 0.00 0.00 0.00 63 1013.3
20240614044540 18 212 0.0 0.0 0.00 0.00 0.00 63 1013.0
20240614043025 18 208 0.0 0.0 0.00 0.00 0.00 60 1012.7
20240614041541 20 259 0.0 6.4 0.00 0.00 0.00 57 1012.4
20240614040025 20 88 0.0 1.6 0.00 0.00 0.00 56 1012.1
20240614034525 21 70 0.0 1.6 0.00 0.00 0.00 53 1011.8
20240614033025 22 77 0.0 1.6 0.00 0.00 0.00 51 1011.8
20240614031524 23 209 0.0 3.2 0.00 0.00 0.00 48 1011.7
20240614030029 25 221 0.0 1.6 0.00 0.00 0.00 45 1011.7
20240614024513 26 245 0.0 3.2 0.00 0.00 0.00 44 1011.4
20240614023010 27 198 0.0 1.6 0.00 0.00 0.00 42 1011.3
20240614021510 27 184 0.0 8.0 0.00 0.00 0.00 42 1011.1
20240614020009 28 229 0.0 3.2 0.00 0.00 0.00 40 1011.1
20240614014509 29 299 0.0 9.7 0.00 0.00 0.00 39 1011.0
20240614013010 29 282 0.0 8.0 0.00 0.00 0.00 39 1010.7
20240614011512 30 156 1.6 8.0 0.00 0.00 0.00 37 1010.6
20240614010010 30 302 0.0 8.0 0.00 0.00 0.00 37 1010.5
20240614004515 30 240 0.0 4.8 0.00 0.00 0.00 36 1010.6
20240614003016 29 181 0.0 11.3 0.00 0.00 0.00 37 1010.7
20240614001516 30 198 0.0 9.7 0.00 0.00 0.00 35 1010.6
20240614000008 30 173 0.0 8.0 0.00 0.00 0.00 34 1010.5
20240613234509 30 309 0.0 9.7 0.00 0.00 0.00 34 1010.5
20240613233024 30 185 1.6 11.3 0.00 0.00 0.00 35 1010.5
20240613231525 30 84 0.0 9.7 0.00 0.00 0.00 36 1010.6
20240613230031 30 158 0.0 6.4 0.00 0.00 0.00 36 1010.7
20240613224524 30 67 0.0 12.9 0.00 0.00 0.00 36 1010.8
20240613223109 30 210 0.0 8.0 0.00 0.00 0.00 38 1010.8
20240613221620 30 223 0.0 4.8 0.00 0.00 0.00 36 1010.9
20240613220112 30 229 0.0 6.4 0.00 0.00 0.00 37 1011.0
20240613214629 29 288 0.0 9.7 0.00 0.00 0.00 37 1011.1
20240613213124 29 192 1.6 12.9 0.00 0.00 0.00 37 1011.1
20240613211517 30 98 0.0 8.0 0.00 0.00 0.00 36 1011.2
20240613210053 29 275 1.6 9.7 0.00 0.00 0.00 36 1011.1
20240613204553 28 242 0.0 6.4 0.00 0.00 0.00 37 1011.3
20240613203053 28 220 1.6 11.3 0.00 0.00 0.00 37 1011.4
20240613201558 28 114 0.0 9.7 0.00 0.00 0.00 39 1011.4
20240613200036 27 312 0.0 11.3 0.00 0.00 0.00 42 1011.5
20240613194527 27 208 3.2 11.3 0.00 0.00 0.00 39 1011.7
20240613193025 27 241 0.0 11.3 0.00 0.00 0.00 42 1011.8
20240613191523 26 244 0.0 12.9 0.00 0.00 0.00 41 1011.8
20240613190023 26 238 1.6 8.0 0.00 0.00 0.00 43 1011.7
20240613184525 26 236 0.0 8.0 0.00 0.00 0.00 43 1011.8
20240613183022 26 203 0.0 8.0 0.00 0.00 0.00 44 1011.8
20240613181638 25 255 4.8 9.7 0.00 0.00 0.00 44 1011.8
20240613180027 25 252 1.6 9.7 0.00 0.00 0.00 46 1011.6
20240613174529 24 226 0.0 6.4 0.00 0.00 0.00 48 1011.7
20240613173046 23 268 1.6 8.0 0.00 0.00 0.00 46 1011.7
20240613171528 23 217 1.6 9.7 0.00 0.00 0.00 48 1011.7
20240613170044 23 218 0.0 3.2 0.00 0.00 0.00 48 1011.7
20240613164524 22 244 0.0 8.0 0.00 0.00 0.00 52 1011.8
20240613163038 23 248 0.0 1.6 0.00 0.00 0.00 49 1011.9
20240613161557 22 234 0.0 4.8 0.00 0.00 0.00 53 1011.8
20240613160041 21 77 0.0 8.0 0.00 0.00 0.00 54 1011.7
20240613154541 21 257 0.0 1.6 0.00 0.00 0.00 57 1011.8
20240613153118 20 305 0.0 1.6 0.00 0.00 0.00 59 1011.7
20240613151552 20 103 0.0 3.2 0.00 0.00 0.00 63 1011.5
20240613150054 18 82 0.0 4.8 0.00 0.00 0.00 67 1011.5
20240613144556 17 84 0.0 4.8 0.00 0.00 0.00 70 1011.3
20240613143053 16 96 0.0 3.2 0.00 0.00 0.00 74 1011.3
20240613141502 15 125 0.0 4.8 0.00 0.00 0.00 77 1011.2
20240613140005 15 121 1.6 6.4 0.00 0.00 0.00 80 1011.0
20240613134507 13 44 1.6 6.4 0.00 0.00 0.00 83 1010.9
20240613133003 13 74 1.6 3.2 0.00 0.00 0.00 83 1010.8